星链-35729(STARLINK-35729)

导读 | 豆包AI

STARLINK-35729是由美国发射的星链卫星,于2025年12月31日入轨,归属SpaceX星链互联网星座网络。星链计划旨在构建全球覆盖的低轨卫星互联网星座,为全球提供高速低延迟的宽带服务,该卫星的发射进一步扩充了星链星座的规模,完善全球卫星互联网覆盖能力。

基本信息
目录编号:
66837
目录名称:
STARLINK-35729
国际标识:
2025-280S
轨道中心:
EARTH
卫星名称:
星链-35729
卫星全名:
星链-35729(STARLINK-35729)
卫星状态:
在轨 (已飞行148 天)
发射日期:
2025-12-02 UTC
国别 :
美国 (US)
星等 :
--
轨道信息
数据来源 国际轨道数据 AOE轨道数据
星历时间 2026-04-28T23:25:30+0800
13小时前
查看轨道信息
2026-04-23T03:00:00+0800
6天前
查看轨道信息
半长轴 6950.209km 6950.22km
偏心率 0.0003413 0.0003045
轨道倾角 70.003° 69.999°
近地点辐角 269.461° 267.981°
升交点赤经 208.693° 223.444°
平近点角 90.616° 220.600°
近地点 569.699km 569.966km
远地点 574.445km 574.2km
周期 96.107分钟 96.108分钟
每日圈数 14.983249 14.983214
详细信息
固有亮度:
5
最大亮度:
2.5
卫星平台:
Starlink V1.0
覆盖范围:
全球
运营商:
太空探索技术公司
运营商所在国:
美国
制造商(研发单位):
太空探索技术公司
制造商所在国:
美国
使用方式:
暂无
卫星简介
Starlink 计划是 SpaceX 推出的全球卫星互联网项目,通过发射低轨道卫星,为全球尤其是偏远地区提供高速、低延迟的互联网服务。自 2019 年起,Starlink 已部署数千颗卫星,旨在缩小全球数字鸿沟,推动互联网普及。该项目还为军事、航空等行业提供通信支持,带来广泛经济效益。
2D轨道图
3D轨道图
轨道高度分析图
轨道倾角分析图
轨道综合分析图
查看轨道综合分析图